Regional Weather Roundup
Issued by NWS State College, PA

Home | Current Version | Previous Version | Graphics & Text | Print | Product List | Glossary Off
Versions: 1 2 3 4 5 6 7 8 9 10 11 12 13 14 15 16 17 18 19 20 21 22 23 24 25 26 27 28 29 30 31 32 33 34 35 36 37 38 39 40 41 42 43 44 45 46 47 48 49 50

000
ASUS41 KCTP 261010
RWRCTP

REGIONAL WEATHER ROUNDUP
NATIONAL WEATHER SERVICE STATE COLLEGE PA
600 AM EDT THU APR 26 2018

Note: "fair" indicates few or no clouds below 12,000 feet with no
significant weather and/or obstructions to visibility.

* = STATION THAT DOES NOT REPORT PRECIPITATION /E.G. RAIN...SNOW...ETC/
    THUNDER OR FOG.

PAZ002>004-007>009-013>016-020>023-029>032-261100-
WESTERN PENNSYLVANIA

CITY           SKY/WX    TMP DP  RH WIND       PRES   REMARKS
ERIE           CLOUDY    40  34  79 W8        29.89R
MEADVILLE      CLOUDY    35  34  96 W7        29.88R
FRANKLIN*      CLOUDY    35  32  88 W7        29.87S
NEW CASTLE     CLOUDY    37  35  92 W5        29.92R
BEAVER COUNTY  NOT AVBL
BUTLER*        CLOUDY    38  33  82 W5        29.91R
PITTSBURGH INT MOCLDY    40  34  79 NW14      29.90R
PITTSBURGH     CLOUDY    39  35  86 N12G17    29.90R
INDIANA*       CLOUDY    39  36  87 W9G16     29.91R
LATROBE        CLOUDY    39  36  87 W5        29.91R
WASHINGTON CO* MOCLDY    36  35  96 CALM      29.94R
$$

PAZ004>006-010>012-017>019-024>028-033>037-041-042-045-046-049>053-261100-
CENTRAL PENNSYLVANIA

CITY           SKY/WX    TMP DP  RH WIND       PRES   REMARKS
BRADFORD       CLOUDY    35  33  92 NW12      29.79S FOG
DUBOIS         CLOUDY    35  34  96 W9        29.82R
CLEARFIELD     CLOUDY    40  34  79 W6        29.82R
JOHNSTOWN      CLOUDY    37  33  85 W12       29.84R
ALTOONA        CLOUDY    44  34  67 W13       29.85R
STATE COLLEGE  CLOUDY    43  36  75 W9G18     29.82R
WILLIAMSPORT   CLOUDY    48  38  68 W14       29.76R
SELINSGROVE    MOCLDY    47  37  68 VRB6      29.79R
FT INDIANTOWN  FAIR      47  37  68 W6        29.76R
CAPITAL CITY   MOCLDY    49  37  63 NW12      29.79R
HARRISBURG     FAIR      48  38  68 NW21      29.78R
YORK           FAIR      42  37  82 W8        29.79R
$$

PAZ038>040-043-044-047-048-054-055-060>062-067>071-261100-
EASTERN PENNSYLVANIA

CITY           SKY/WX    TMP DP  RH WIND       PRES   REMARKS
SCRANTON       FAIR      47  39  74 W10       29.73R
MOUNT POCONO   MOCLDY    44  42  93 W18       29.67R
ALLENTOWN      MOCLDY    50  39  66 W13       29.72R
QUAKERTOWN*    SUNNY     48  41  76 W10       29.73R
READING        FAIR      47  40  76 W6        29.76R
LANCASTER      FAIR      45  38  76 W14       29.77R
COATESVILLE    FAIR      45  39  81 NW18G26   29.76R
POTTSTOWN      FAIR      46  39  76 W8        29.75R
BLUE BELL      FAIR      48  41  76 W6        29.74R
DOYLESTOWN     FAIR      51  43  74 NW10G24   29.70R
WILLOW GROVE   NOT AVBL
NORTH PHILA    FAIR      54  43  66 W16G24    29.72R
PHILADELPHIA   FAIR      52  40  63 W15       29.75R
$$




USA.gov is the U.S. government's official web portal to all federal, state and local government web resources and services.